Regional Weather Roundup
Issued by NWS Wakefield, VA

Home | Current Version | Previous Version | Text Only | Print | Product List | Glossary On
Versions: 1 2 3 4 5 6 7 8 9 10 11 12 13 14 15 16 17 18 19 20 21 22 23 24 25 26 27 28 29 30 31 32 33 34 35 36 37 38 39 40 41 42 43 44 45 46 47 48 49 50
000
ASUS41 KAKQ 230315
RWRAKQ

REGIONAL WEATHER ROUNDUP
NATIONAL WEATHER SERVICE WAKEFIELD VA
1100 PM EDT SUN OCT 22 2017

Note: "fair" indicates few or no clouds below 12,000 feet with no
significant weather and/or obstructions to visibility. * = Denotes
station may not report precipitation (e.g., rain,snow,etc.),
thunder or fog.

VAZ042-051-052>054-056-230400-
NORTHERN VIRGINIA

CITY           SKY/WX    TMP DP  RH WIND       PRES   REMARKS
WASH NATIONAL  MOCLDY    64  58  80 S7        30.33F
DULLES         CLOUDY    63  58  83 SE8       30.30F
FORT BELVOIR   MOCLDY    54  52  91 CALM      30.31F
QUANTICO       MOCLDY    65  61  87 S6        30.32F
FREDERICKSBRG* MOCLDY    58  58 100 CALM      30.30F
STAFFORD*      CLOUDY    54  54 100 CALM      30.35F
WARRENTON      MOCLDY    64  55  71 SE6       30.30F
CULPEPER*      PTCLDY    61  54  79 CALM      30.31F
MANASSAS*      CLOUDY    61  57  87 S6        30.31F
LEESBURG*      PTCLDY    61  55  82 S3        30.32F
WINCHESTER     CLOUDY    57  52  82 CALM      30.29S
FRONT ROYAL*   CLOUDY    64  55  72 S5        30.28S
LURAY*         CLOUDY    57  54  88 S5        30.29S
$$

VAZ048-049-060>072-079>083-230400-
CENTRAL AND SOUTH CENTRAL VIRGINIA

CITY           SKY/WX    TMP DP  RH WIND       PRES   REMARKS
RICHMOND       CLOUDY    61  58  90 CALM      30.31F
CHESTERFIELD*  NOT AVBL
PETERSBURG*    CLOUDY   N/A N/A N/A CALM      30.32S
HANOVER        PTCLDY    58  57  97 CALM      30.32F
TAPPAHANNOCK*  PTCLDY   N/A N/A N/A CALM      30.33F
QUINTON*       FAIR      59  59 100 MISG      30.31F
CHARLOTTSVILLE CLOUDY    67  53  61 S9        30.30S
GORDONSVILLE*  PTCLDY    55  55 100 CALM      30.30F
ORANGE*        PTCLDY    54  54 100 CALM      30.31S
LOUISA*        PTCLDY    57  54  88 CALM      30.30F
BUMPASS*       FAIR      60  58  94 S5        30.31S
FARMVILLE*     CLEAR     62  58  87 CALM      30.29F
CREWE*         FAIR      56  56 100 CALM      30.30F
FORT PICKETT*  FAIR      61  61 100 S7        30.31F
CHASE CITY*    FAIR      61  55  79 SE3       30.30S
CLARKSVILLE*   FAIR      64  59  82 E6        30.29F
SOUTH HILL*    CLEAR     60  56  87 CALM      30.36F
LAWRENCEVILLE* FAIR      62  59  89 CALM      30.31S
EMPORIA*       CLOUDY    57  57 100 CALM      30.32F
$$

VAZ088>098-230400-
SOUTHEAST VIRGINIA

CITY           SKY/WX    TMP DP  RH WIND       PRES   REMARKS
NORFOLK        PTCLDY    67  65  93 SE3       30.32S
VIRGINIA BEACH MOCLDY    65  63  93 E5        30.31F
NORFOLK NAVAL  CLOUDY    65  63  93 SE7       30.33F
WEST POINT*    MOCLDY    57  57 100 CALM      30.33F
SALUDA*        FAIR      59  59 100 CALM      30.32F
NEWPORT NEWS   FOG       58  57  97 CALM      30.31F VSB 1/4
LANGLEY AFB    PTCLDY    62  62  99 CALM      30.31F
FORT EUSTIS    CLOUDY    61  58  90 CALM      30.29F
WILLIAMSBURG*  CLOUDY    63  63 100 CALM      30.32F
HR EXEC AP*    NOT AVBL
FRANKLIN*      CLOUDY    57  57  97 CALM      30.32F
US460-WAKEFLD  PTCLDY    57  57 100 CALM      30.32F
$$

VAZ020-022-025-037-045-230400-
WEST CENTRAL AND SOUTHWEST VIRGINIA

CITY           SKY/WX    TMP DP  RH WIND       PRES   REMARKS
STAUNTON*      CLOUDY    53  49  85 CALM      30.31F
WAYNESBORO*    CLOUDY    59  55  87 S9        30.31F
HOT SPRINGS VA CLOUDY    56  47  71 SE10G16   30.35F
LYNCHBURG      PTCLDY    63  53  70 SE7       30.29F
DANVILLE       CLOUDY    61  55  81 E6        30.28F
SOUTH BOSTON*  FAIR      58  56  91 CALM      30.28F
MARTINSVILLE   CLOUDY    53  52  96 CALM      30.31S
ROANOKE        MOCLDY    59  53  80 NW3       30.31F
BLACKSBURG     PTCLDY    58  52  78 E3        30.34S
DUBLIN*        PTCLDY    59  53  79 CALM      30.32S
MARION*        CLOUDY    63  50  63 E6        30.30F
HILLSVILLE*    CLOUDY    59  49  70 CALM      30.30F
RICHLANDS*     FAIR      63  43  48 SE8       30.24F
WISE*          CLOUDY    63  52  67 S12G17    30.22F
ABINGDON*      CLOUDY    67  54  61 E5        30.23F
$$

MDZ021>025-VAZ099-100-230400-
SOUTHERN MARYLAND AND THE DELMARVA PENINSULA

CITY           SKY/WX    TMP DP  RH WIND       PRES   REMARKS
PATUXENT RIVER PTCLDY    65  62  90 SE5       30.32F
BAY BRIDGE APT MOCLDY    63  57  82 SE5       30.34S
LEONARDTOWN    NOT AVBL
DOVER          PTCLDY    61  57  88 CALM      30.34F FOG
GEORGETOWN     CLOUDY    61  60  97 CALM      30.35S
EASTON         PTCLDY    60  56  86 SE3       30.37F
CAMBRIDGE      CLOUDY    57  57 100 SE5       30.34S
SALISBURY      CLOUDY    61  61 100 E5        30.34S
OCEAN CITY     CLOUDY    65  64  97 CALM      30.35F
WALLOPS ISLAND CLOUDY    67  66  97 SE3       30.34F
ACCOMACK*      PTCLDY    61  60  99 CALM      30.33S FOG
$$

NCZ012>017-030>032-230400-
NORTH CENTRAL AND EASTERN NORTH CAROLINA

CITY           SKY/WX    TMP DP  RH WIND       PRES   REMARKS
ROANOKE RAPIDS FAIR      59  57  94 CALM      30.31S
RALEIGH        MOCLDY    66  60  81 SE7       30.29F
ELIZABETH CITY CLEAR     64  64 100 CALM      30.32S
AHOSKIE*       PTCLDY    62  61  97 CALM      30.31F
EDENTON*       CLEAR     66  65  94 CALM      30.32F
CURRITUCK*     CLEAR     66  65  97 CALM      30.33S
KILL DEVIL HLS CLEAR     68  68 100 CALM      30.30F
MANTEO         MOCLDY   N/A N/A N/A E3        30.32S
CAPE HATTERAS  MOCLDY    68  65  90 E5        30.30F
TARBORO*       NOT AVBL
GOLDSBORO      CLEAR     63  60  90 E5        30.27F FOG
WASHINGTON     CLEAR     63  60  92 CALM      30.31F
GREENVILLE     PTCLDY    64  61  88 CALM      30.31S
NEW BERN       CLEAR     67  65  93 CALM      30.31S
WILMINGTON     PTCLDY    65  64  97 CALM      30.27S
$$

VAZ048-230400-
ELSEWHERE

CITY           SKY/WX    TMP DP  RH WIND       PRES   REMARKS
HARRISBURG PA  MOCLDY    56  51  84 E5        30.32F
BALTIMORE      CLOUDY    56  54  93 CALM      30.33S
ANNAPOLIS      CLOUDY    65  62  90 S8        30.32F
ANDREWS AFB    PTCLDY    59  56  89 SE6       30.32F
PHILADELPHIA   PTCLDY    59  55  87 CALM      30.35F
HENDERSON NC   PTCLDY    63  53  72 SE5       30.30S
GREENSBORO     MOCLDY    66  58  75 SE8       30.26F
ROCKY MOUNT    MOCLDY    63  62  97 CALM      30.30S
$$

VAZ100-230400-
MARINE

STATION/POSITION TIME  TEMP    WIND        PRES    WAVE   SWELL
                       AIR SEA DIR/SP/G            HT/PER HT/PER
                 (UTC) (F)     (DEG/KT/KT) (MB)    (FT/S) (FT/S)
BRANDYWINE LGT   0248          170/ 11/ 12 1028.0F
CAPE MAY NJ      0242   66 67  120/  5/  6 1027.2F
LEWES DE         0242   65 67  160/  4/  5 1027.5F
15NM E FENWICK I 0250   68 68  120/ 10/ 10 1028.0F   2/ 9   2/ 9
OCEAN-CITY-INLET 0242   68 68  160/  4/  6 1028.0F
WACHAPREAGUE VA  0242   68 69  120/  4/  5 1027.2F
THOMAS POINT MD  0300   66 68  150/ 12/ 13   N/A
GOOSES REEF MD   0300   66 69  160/ 10/ 10 1026.7    1/ 2
COVE POINT MD    0242   68     180/ 13/ 15 1027.8F
SOLOMONS ISLAND  0242   66 69  160/  4/  5 1026.7F
BISHOPS HEAD MD  0242   66 69  130/  6/  8 1027.5F
PINEY POINT MD   0236          170/  7/  8   N/A
POTOMAC MD       0300   68 69  150/ 10/ 12 1026.2    1/ 3
CAMBRIDGE MD     0248                      1028.1F
LEWISETTA VA     0242   65 67  170/  3/  4 1026.8F
RAPPAHANNOCK LGT 0248          100/  9/ 10 1027.4F
STINGRAY PT      0250   69     160/  8/ 10 1027.2F
YORK RVR RNG VA  0236   70     130/  6/  8 1027.2F
YORKTOWN VA      0236   67 70  160/  3/  4 1026.3F
JAMESTOWN VA     0300      70  130/  4/  6   N/A     0
DOMINION TERM VA 0236   68     110/  5/  6 1026.9F
KIPTOPEKE VA     0236      69  110/  8/ 11   N/A
CAPE HENRY VA    0236   69     130/  5/  6   N/A
WILLOUBY STN VA  0236   68     130/  7/  8 1026.5F
S CRANEY ISL VA  0236   68     140/  5/  8 1026.5F
CAPE HENRY BUOY  0300      70                N/A     2/10
1ST LANDING BUOY 0300   69 69              1026.5    2/ 3
CAPE CHARLES BUO 0221      70                N/A     2/ 9
64NM E OF VA BCH 0250   70 69   80/  6/  6 1027.2S   3/ 8   2/ 8
DUCK PIER NC     0236   70 70   70/  6/  7 1026.2F
44100 DUCK FRF   0241      70                N/A     2/ 9
44056 DUCK FRF   0300      70                N/A     2/ 9
OREGON INLET NC  0248           50/  4/  5 1026.2F
HATTERAS NC      0236   71 73   80/  3/  3 1025.9F
DIAMOND SHLS NC  0250   77 81  130/ 10/ 14 1025.8F   3/10   3/10
CAPE LOOKOUT NC  0300   75     120/ 11/ 12 1025.1F
$$



USA.gov is the U.S. government's official web portal to all federal, state and local government web resources and services.